| time (UTC) | temp F | wind direction | speed knots | gust knots | rain 1hr in | rain 24hr in | rain mn in | humidity % | barometer mb |
| 20260507163018 | 58 | 203 | 10.4 | 13.9 | 0.00 | 0.00 | 0.00 | 68 | 1012.0 |
| 20260507161514 | 57 | 240 | 8.7 | 13.9 | 0.00 | 0.00 | 0.00 | 73 | 1011.9 |
| 20260507160016 | 56 | 247 | 8.7 | 15.6 | 0.00 | 0.00 | 0.00 | 76 | 1011.9 |
| 20260507154510 | 55 | 258 | 9.6 | 16.5 | 0.00 | 0.00 | 0.00 | 77 | 1011.9 |
| 20260507153009 | 54 | 250 | 9.6 | 14.8 | 0.00 | 0.00 | 0.00 | 79 | 1011.7 |
| 20260507151504 | 53 | 255 | 11.3 | 16.5 | 0.00 | 0.00 | 0.00 | 80 | 1011.7 |
| 20260507150002 | 52 | 242 | 9.6 | 16.5 | 0.00 | 0.00 | 0.00 | 84 | 1011.7 |
| 20260507144502 | 49 | 221 | 5.2 | 9.6 | 0.00 | 0.00 | 0.00 | 87 | 1011.8 |
| 20260507143058 | 49 | 231 | 5.2 | 7.8 | 0.00 | 0.00 | 0.00 | 85 | 1011.8 |
| 20260507141555 | 49 | 248 | 3.5 | 11.3 | 0.00 | 0.00 | 0.00 | 85 | 1011.8 |
| 20260507140053 | 50 | 215 | 5.2 | 9.6 | 0.00 | 0.00 | 0.00 | 86 | 1011.3 |
| 20260507134553 | 50 | 237 | 5.2 | 10.4 | 0.00 | 0.00 | 0.00 | 85 | 1011.4 |
| 20260507133051 | 50 | 243 | 6.1 | 9.6 | 0.00 | 0.00 | 0.00 | 84 | 1011.3 |
| 20260507131558 | 50 | 211 | 5.2 | 12.2 | 0.00 | 0.00 | 0.00 | 86 | 1011.0 |
| 20260507130103 | 48 | 243 | 3.5 | 7.8 | 0.00 | 0.00 | 0.00 | 90 | 1011.0 |
| 20260507124551 | 46 | 221 | 3.5 | 5.2 | 0.00 | 0.00 | 0.00 | 90 | 1011.0 |
| 20260507123043 | 45 | 207 | 1.7 | 3.5 | 0.00 | 0.00 | 0.00 | 88 | 1011.2 |
| 20260507121540 | 47 | 189 | 0.9 | 2.6 | 0.00 | 0.00 | 0.00 | 87 | 1011.2 |
| 20260507120041 | 49 | 234 | 2.6 | 5.2 | 0.00 | 0.00 | 0.00 | 87 | 1011.2 |
| 20260507114533 | 50 | 254 | 5.2 | 8.7 | 0.00 | 0.00 | 0.00 | 85 | 1011.2 |
| 20260507113031 | 51 | 248 | 7.0 | 13.9 | 0.00 | 0.00 | 0.00 | 84 | 1011.2 |
| 20260507111530 | 52 | 245 | 10.4 | 14.8 | 0.00 | 0.00 | 0.00 | 83 | 1011.0 |
| 20260507110027 | 51 | 246 | 8.7 | 12.2 | 0.00 | 0.00 | 0.00 | 85 | 1011.0 |
| 20260507104526 | 50 | 259 | 5.2 | 8.7 | 0.00 | 0.00 | 0.00 | 86 | 1011.0 |
| 20260507103024 | 51 | 276 | 6.1 | 9.6 | 0.00 | 0.00 | 0.00 | 85 | 1011.0 |
| 20260507101523 | 51 | 244 | 6.1 | 10.4 | 0.00 | 0.00 | 0.00 | 85 | 1011.0 |
| 20260507100030 | 51 | 265 | 7.0 | 9.6 | 0.00 | 0.00 | 0.00 | 84 | 1011.1 |
| 20260507094520 | 52 | 254 | 7.0 | 13.9 | 0.00 | 0.00 | 0.00 | 81 | 1011.2 |
| 20260507093018 | 52 | 254 | 7.8 | 14.8 | 0.00 | 0.00 | 0.00 | 81 | 1010.9 |
| 20260507091516 | 53 | 242 | 7.8 | 11.3 | 0.00 | 0.00 | 0.00 | 80 | 1011.0 |
| 20260507090020 | 53 | 244 | 7.8 | 11.3 | 0.00 | 0.00 | 0.00 | 78 | 1011.1 |
| 20260507084514 | 53 | 271 | 10.4 | 14.8 | 0.00 | 0.00 | 0.00 | 77 | 1011.0 |
| 20260507083009 | 52 | 236 | 4.3 | 8.7 | 0.00 | 0.00 | 0.00 | 79 | 1011.0 |
| 20260507081513 | 51 | 270 | 5.2 | 9.6 | 0.00 | 0.00 | 0.00 | 80 | 1011.1 |
| 20260507080008 | 51 | 244 | 3.5 | 7.0 | 0.00 | 0.00 | 0.00 | 79 | 1011.1 |
| 20260507074507 | 52 | 246 | 3.5 | 8.7 | 0.00 | 0.00 | 0.00 | 78 | 1011.1 |
| 20260507073001 | 52 | 267 | 6.1 | 8.7 | 0.00 | 0.00 | 0.00 | 78 | 1011.0 |
| 20260507071559 | 52 | 231 | 1.7 | 4.3 | 0.00 | 0.00 | 0.00 | 78 | 1010.9 |
| 20260507070054 | 53 | 248 | 2.6 | 7.0 | 0.00 | 0.00 | 0.00 | 76 | 1010.9 |
| 20260507064553 | 53 | 246 | 3.5 | 6.1 | 0.00 | 0.00 | 0.00 | 75 | 1010.8 |
| 20260507063051 | 53 | 239 | 5.2 | 9.6 | 0.00 | 0.00 | 0.00 | 74 | 1010.6 |
| 20260507061551 | 53 | 244 | 2.6 | 6.1 | 0.00 | 0.00 | 0.00 | 75 | 1010.6 |
| 20260507060050 | 53 | 243 | 3.5 | 6.1 | 0.00 | 0.00 | 0.00 | 75 | 1010.6 |
| 20260507054628 | 54 | 198 | 2.6 | 6.1 | 0.00 | 0.00 | 0.00 | 74 | 1010.6 |
| 20260507053053 | 55 | 246 | 0.9 | 3.5 | 0.00 | 0.00 | 0.00 | 71 | 1010.6 |
| 20260507051549 | 56 | 234 | 1.7 | 7.0 | 0.00 | 0.00 | 0.00 | 68 | 1010.5 |
| 20260507050054 | 58 | 262 | 7.0 | 12.2 | 0.00 | 0.00 | 0.00 | 65 | 1010.4 |
| 20260507044553 | 59 | 285 | 7.0 | 11.3 | 0.00 | 0.00 | 0.00 | 63 | 1010.4 |
| 20260507043048 | 59 | 264 | 6.1 | 11.3 | 0.00 | 0.00 | 0.00 | 63 | 1010.3 |
| 20260507041556 | 60 | 284 | 8.7 | 13.9 | 0.00 | 0.00 | 0.00 | 61 | 1010.1 |
| 20260507040047 | 61 | 267 | 7.0 | 12.2 | 0.00 | 0.00 | 0.00 | 61 | 1009.8 |
| 20260507034555 | 62 | 259 | 7.0 | 14.8 | 0.00 | 0.00 | 0.00 | 61 | 1009.5 |
| 20260507033052 | 63 | 261 | 11.3 | 18.2 | 0.00 | 0.00 | 0.00 | 59 | 1009.3 |
| 20260507031601 | 64 | 265 | 10.4 | 17.4 | 0.00 | 0.00 | 0.00 | 59 | 1009.0 |
| 20260507030052 | 65 | 274 | 8.7 | 13.9 | 0.00 | 0.00 | 0.00 | 58 | 1008.9 |
| 20260507024546 | 65 | 241 | 10.4 | 16.5 | 0.00 | 0.00 | 0.00 | 57 | 1008.6 |
| 20260507023044 | 66 | 278 | 7.0 | 14.8 | 0.00 | 0.00 | 0.00 | 55 | 1008.6 |
| 20260507021543 | 67 | 246 | 8.7 | 14.8 | 0.00 | 0.00 | 0.00 | 54 | 1008.7 |
| 20260507020047 | 68 | 265 | 10.4 | 17.4 | 0.00 | 0.00 | 0.00 | 53 | 1008.6 |
| 20260507014550 | 69 | 256 | 11.3 | 17.4 | 0.00 | 0.00 | 0.00 | 53 | 1008.4 |
| 20260507013045 | 69 | 271 | 9.6 | 14.8 | 0.00 | 0.00 | 0.00 | 54 | 1008.4 |
| 20260507011542 | 70 | 264 | 7.8 | 14.8 | 0.00 | 0.00 | 0.00 | 55 | 1008.4 |
| 20260507010043 | 71 | 288 | 10.4 | 15.6 | 0.00 | 0.00 | 0.00 | 51 | 1008.4 |
| 20260507004540 | 71 | 232 | 11.3 | 16.5 | 0.00 | 0.00 | 0.00 | 53 | 1008.4 |
| 20260507003043 | 71 | 246 | 9.6 | 13.9 | 0.00 | 0.00 | 0.00 | 55 | 1008.2 |
| 20260507001541 | 72 | 262 | 8.7 | 13.9 | 0.00 | 0.00 | 0.00 | 54 | 1008.1 |
| 20260507000041 | 72 | 279 | 10.4 | 16.5 | 0.00 | 0.00 | 0.00 | 52 | 1008.1 |
| 20260506234538 | 72 | 286 | 11.3 | 16.5 | 0.00 | 0.00 | 0.00 | 52 | 1008.2 |
| 20260506233042 | 72 | 277 | 10.4 | 18.2 | 0.00 | 0.00 | 0.00 | 53 | 1008.1 |
| 20260506231536 | 72 | 288 | 9.6 | 16.5 | 0.00 | 0.00 | 0.00 | 51 | 1008.0 |
| 20260506230036 | 73 | 248 | 10.4 | 17.4 | 0.00 | 0.00 | 0.00 | 51 | 1008.1 |
| 20260506224536 | 73 | 246 | 10.4 | 16.5 | 0.00 | 0.00 | 0.00 | 49 | 1008.3 |
| 20260506223036 | 74 | 250 | 9.6 | 16.5 | 0.00 | 0.00 | 0.00 | 53 | 1008.5 |
| 20260506221534 | 74 | 238 | 7.0 | 13.9 | 0.00 | 0.00 | 0.00 | 53 | 1008.5 |
| 20260506220036 | 74 | 208 | 9.6 | 14.8 | 0.00 | 0.00 | 0.00 | 53 | 1008.7 |
| 20260506214532 | 74 | 269 | 9.6 | 16.5 | 0.00 | 0.00 | 0.00 | 51 | 1009.0 |
| 20260506213032 | 76 | 248 | 7.8 | 15.6 | 0.00 | 0.00 | 0.00 | 48 | 1009.0 |
| 20260506211533 | 75 | 291 | 10.4 | 15.6 | 0.00 | 0.00 | 0.00 | 48 | 1009.2 |
| 20260506210032 | 76 | 261 | 10.4 | 18.2 | 0.00 | 0.00 | 0.00 | 48 | 1009.1 |
| 20260506204531 | 76 | 317 | 11.3 | 15.6 | 0.00 | 0.00 | 0.00 | 49 | 1009.1 |
| 20260506203027 | 76 | 259 | 7.8 | 15.6 | 0.00 | 0.00 | 0.00 | 51 | 1009.1 |
| 20260506201525 | 76 | 244 | 8.7 | 13.9 | 0.00 | 0.00 | 0.00 | 50 | 1009.2 |
| 20260506200022 | 75 | 243 | 7.0 | 13.0 | 0.00 | 0.00 | 0.00 | 52 | 1009.2 |
| 20260506194519 | 74 | 242 | 7.0 | 14.8 | 0.00 | 0.00 | 0.00 | 55 | 1009.3 |
| 20260506193014 | 73 | 225 | 8.7 | 13.0 | 0.00 | 0.00 | 0.00 | 61 | 1009.6 |
| 20260506191512 | 72 | 275 | 8.7 | 13.0 | 0.00 | 0.00 | 0.00 | 57 | 1009.6 |
| 20260506190009 | 71 | 240 | 9.6 | 15.6 | 0.00 | 0.00 | 0.00 | 60 | 1009.9 |
| 20260506184506 | 70 | 229 | 7.8 | 14.8 | 0.00 | 0.00 | 0.00 | 61 | 1009.9 |
| 20260506183002 | 69 | 236 | 8.7 | 14.8 | 0.00 | 0.00 | 0.00 | 63 | 1010.1 |
| 20260506181600 | 69 | 216 | 9.6 | 13.9 | 0.00 | 0.00 | 0.00 | 64 | 1010.4 |
| 20260506180106 | 68 | 252 | 8.7 | 13.9 | 0.00 | 0.00 | 0.00 | 63 | 1010.6 |
| 20260506174557 | 68 | 301 | 7.8 | 13.9 | 0.00 | 0.00 | 0.00 | 66 | 1010.7 |
| 20260506173058 | 67 | 246 | 8.7 | 14.8 | 0.00 | 0.00 | 0.00 | 66 | 1010.6 |
| 20260506171556 | 66 | 258 | 8.7 | 13.9 | 0.00 | 0.00 | 0.00 | 69 | 1010.7 |
| 20260506164545 | 64 | 245 | 7.8 | 13.0 | 0.00 | 0.00 | 0.00 | 72 | 1010.6 |